sat.trackr.live / text

‹ back to catalog

TOMORROW-S4

NORAD 62386 · 2024-247K

PAYLOAD ACTIVE UNKNOWN

§ Identity

Operator
Country
US
Launch date
2024-12-21
Launch site
AFWTR
Launch vehicle
Mass (kg)
RCS (m²)

External: N2YO · Heavens-Above · Gunter

§ Orbital elements

Epoch: 2026-09-21T00:03:34.345440Z

Period
94.10 min
Inclination
44.9812°
Eccentricity
0.0005107
Mean motion
15.30232788 rev/d
Perigee alt
471.6 km
Apogee alt
478.6 km
Semi-major
6,853.3 km
B*
1.3178e-4
RAAN
128.1723°
Arg perigee
231.7539°
Mean anomaly
128.2885°
Rev number
9,762

§ Raw data

TOMORROW-S41 62386U 24247K   26264.00248085  .00003625  00000+0  13178-3 0  99992 62386  44.9812 128.1723 0005107 231.7539 128.2885 15.30232788 97629

JSON: /api/v1/satellites/62386 · /tle

For live sub-satellite position, see the globe view (requires WebGL).

§ Visibility from observer

Set your observer location to see the next 7 days of passes ≥ 10°. The values pass through the URL so the page stays shareable.

No JS? Fill the form by hand. The geolocation button needs JavaScript.